Tracking 25710 objects as of 5-Jul-2022
HD Live streaming from Space Station
objects crossing your sky now

FENGYUN 1C DEB

Track FENGYUN 1C DEB now!
10-day predictions


NORAD ID: 31878
Int'l Code: 1999-025CKD
Perigee: 606.8 km
Apogee: 801.6 km
Inclination: 99.5 °
Period: 98.7 minutes
Semi major axis: 7075 km
RCS: 0.0122 m2 (small)
Launch date: May 10, 1999
Source: People's Republic of China (PRC)
Launch site: Taiyaun Space Center, China (TSC)

Note: This is SATELLITE DEBRIS
aabbcc
Your satellite tracking list
Your tracking list is empty




NASA's NSSDC Master Catalog

Two Line Element Set (TLE):
1 31878U 99025CKD 22186.46161297  .00001791  00000-0  34841-3 0  9998
2 31878  99.4547 255.3019 0137611 114.2311 247.3335 14.58796310797671
Source of the keplerian elements: AFSPC